Hors Challenge

Lustirun - Lustin (23.00 km)

lundi 10 juin 2019

Vous pouvez trouver Le classement original sur : www.otopservices.be  
 
LUSTIRUN - LUSTIN
DISTANCE : 22.93 km
lundi 10 juin 2019
 
Place dos NOM Catégorie Pl/cat temps temps/km Vitesse
01:00:00              
1 1833 WILLIAM LAMBOTTE SENIOR H 1 01:45:00 04:35 13.10
2 1840 SAMUEL THIRY SENIOR H 2 01:47:12 04:41 12.83
3 1628 BENJAMIN RIQUET SENIOR H 3 01:47:26 04:41 12.80
4 1813 ANDEAS PAHOS SENIOR H 4 01:47:54 04:42 12.75
5 1852 LUCA LANOLINE SENIOR H 5 01:48:15 04:43 12.71
6 1602 LAURENT MINEUR SENIOR H 6 01:55:45 05:03 11.88
7 1856 AURELIEN LEFEVRE SENIOR H 7 01:55:46 05:03 11.88
8 1807 ETIENNE MANIQUET VETERAN 1 1 01:57:32 05:08 11.70
9 1817 DIMITRI DE VLEESCHAUWER SENIOR H 8 01:59:04 05:12 11.55
10 1830 GREGORY SOORS SENIOR H 9 02:00:35 05:16 11.41
11 1650 NUNO SANTOS SENIOR H 10 02:02:18 05:20 11.25
12 1789 DANIEL KLAZINKI SENIOR H 11 02:02:52 05:22 11.20
13 1780 BENJAMIN GOURQUE SENIOR H 12 02:03:51 05:24 11.11
14 1774 GEOFFREY PERPINIEN VETERAN 1 2 02:03:52 05:24 11.10
15 1610 VALENTIN HENRY SENIOR H 13 02:03:57 05:24 11.10
16 1843 DAVID DELSIPEE VETERAN 1 3 02:05:06 05:27 11.00
17 1818 ANBROISE ROMNEE SENIOR H 14 02:08:18 05:36 10.72
18 1800 STEPHANIE CAPELLE SENIOR D 1 02:10:20 05:41 10.55
19 1822 BENNOT GUEUNINE SENIOR H 15 02:10:39 05:42 10.53
20 1801 MICHEL GILLARD VETERAN 1 4 02:10:55 05:43 10.51
21 1860 OLIVIER DULON VÉTÉRAN 2 1 02:12:57 05:48 10.35
22 1642 CÉDRIC DONNAY VETERAN 1 5 02:13:31 05:49 10.30
23 1617 BENJAMIN BRICHEUX SENIOR H 16 02:14:01 05:51 10.26
24 1767 SEBASTIEN DUJARDIN SENIOR H 17 02:14:05 05:51 10.26
25 1649 ANTOINE PONCELET SENIOR H 18 02:14:22 05:52 10.24
26 1638 ARNAUD JASSELETTE SENIOR H 19 02:14:33 05:52 10.22
27 1849 ULRICH WINZ SENIOR H 20 02:15:02 05:53 10.19
28 1857 ANAIS OULUKOFF SENIOR D 2 02:15:19 05:54 10.17
29 1842 ABDELILAH ADRIOUCHI SENIOR H 21 02:15:21 05:54 10.16
30 1651 FABRICE PIAT SENIOR H 22 02:15:53 05:56 10.12
31 1644 CEDRIC PIRON VETERAN 1 6 02:17:19 05:59 10.02
32 1603 THOMAS DEWANDRE SENIOR H 23 02:17:52 06:01 9.98
33 1853 PHILIPE VAN DER BORGHT SENIOR H 24 02:18:26 06:02 9.94
34 1803 THOMAS COP SENIOR H 25 02:19:33 06:05 9.86
35 1675 FRÉDÉRIC DELENS VETERAN 1 7 02:21:16 06:10 9.74
36 1622 LAURENT LEMIRE VETERAN 1 8 02:21:18 06:10 9.73
37 1662 CHRISTOPHE CLICHE VÉTÉRAN 2 2 02:21:37 06:11 9.71
38 1792 BENOIT ANCIAUX SENIOR H 26 02:21:40 06:11 9.71
39 1621 AUDRIC NAGY SENIOR H 27 02:21:47 06:11 9.70
40 1809 FRANCOIS DOUFEET SENIOR H 28 02:22:00 06:12 9.69
41 1846 BRIEUX GILSON SENIOR H 29 02:22:19 06:12 9.67
42 1845 LUCKAS MICHAUX VETERAN 1 9 02:22:36 06:13 9.65
43 1679 SIMON REMAN SENIOR H 30 02:22:36 06:13 9.65
44 1806 GUILLAUME BASTIEN VETERAN 1 10 02:22:47 06:14 9.63
45 1655 JONATHAN LESCEUX SENIOR H 31 02:22:51 06:14 9.63
46 1791 NICOLAS BRIX SENIOR H 32 02:23:06 06:15 9.61
47 1741 PHILIPPE LAURENT VÉTÉRAN 2 3 02:23:24 06:15 9.59
48 1647 KIM VANGHELUWE SENIOR H 33 02:23:39 06:16 9.58
49 1785 GIOVANNIE MARTELLO SENIOR H 34 02:24:26 06:18 9.52
50 1848 SAMUEL THIRY VETERAN 1 11 02:24:27 06:18 9.52
51 1609 CINDY RUTH AINÉE 1 1 02:25:05 06:20 9.48
52 1837 PIRRE LECLER VETERAN 1 12 02:25:06 06:20 9.48
53 1804 ALBAN CASTAINE SENIOR H 35 02:25:24 06:21 9.46
54 1648 HERVE MAISSIN VETERAN 1 13 02:25:53 06:22 9.43
55 1626 GILLES MARGHEM SENIOR H 36 02:26:31 06:23 9.39
56 1798 SERGIO MONTECAVALLI VÉTÉRAN 2 4 02:26:49 06:24 9.37
57 1678 MAXIME ROMNEE SENIOR H 37 02:27:49 06:27 9.31
58 1654 MAELLE LAMBERT SENIOR D 3 02:28:13 06:28 9.28
59 1823 FRANCOI DEGEZ SENIOR H 38 02:28:13 06:28 9.28
60 1808 OLIVIER LAVRY SENIOR H 39 02:28:16 06:28 9.28
61 1666 JEROME ARNOULD SENIOR H 40 02:28:46 06:29 9.25
62 1773 DENIS PUFFET SENIOR H 41 02:28:53 06:30 9.24
63 1652 VINCENT GERARD VÉTÉRAN 2 5 02:28:55 06:30 9.24
64 1656 GREGORY BERTRAND SENIOR H 42 02:31:27 06:36 9.08
65 1629 STEPHAN HORIDOR VETERAN 1 14 02:31:45 06:37 9.06
66 1627 ERIC BERNARD VETERAN 1 15 02:31:54 06:38 9.06
67 1827 LEOPOLD KEMPERNNZERS VETERAN 1 16 02:32:43 06:40 9.01
68 1665 FRÉDÉRIQUE FOSSOUL SENIOR D 4 02:32:58 06:40 8.99
69 1659 MARC CHARLES VÉTÉRAN 2 6 02:33:41 06:42 8.95
70 1784 AMBROISE DUJARDIN SENIOR H 43 02:33:52 06:43 8.94
71 1632 LUC VAN KELST VETERAN 1 17 02:34:15 06:44 8.92
72 1835 PIERRE YVES ANSIAS SENIOR H 44 02:35:46 06:48 8.83
73 1838 DIMITRI SIMON VÉTÉRAN 2 7 02:36:01 06:48 8.82
74 1777 CLELIA KESTEMONT SENIOR D 5 02:36:01 06:48 8.82
75 1633 JAN JACQUET VETERAN 1 18 02:36:54 06:51 8.77
76 1641 MICHAEL VANNESTE SENIOR H 45 02:37:41 06:53 8.72
77 1834 CHRITOPHE JAQUER VETERAN 1 19 02:37:47 06:53 8.72
78 1836 BRIGITTE DEMOULIN AINÉE 2 1 02:38:01 06:54 8.70
79 1619 JULIE KEMP AINÉE 1 2 02:39:19 06:57 8.63
80 1829 CHRISTOPHE FAUCONNIER VETERAN 1 20 02:39:22 06:57 8.63
81 1775 DUNCAN DEPREZ SENIOR H 46 02:39:30 06:57 8.62
82 1832 EMMANUEL LEBRUN VÉTÉRAN 2 8 02:39:41 06:58 8.61
83 1828 NATHALIE MONTEYNE AINÉE 2 2 02:39:41 06:58 8.61
84 1657 FABRICE ROUYER VÉTÉRAN 2 9 02:40:23 07:00 8.58
85 1799 NATAHLIE DE LEENEER AINÉE 2 3 02:40:26 07:00 8.57
86 1831 FABRICE VOLINO VETERAN 1 21 02:41:38 07:03 8.51
87 1815 PATRICE FOURNY VETERAN 1 22 02:41:47 07:03 8.50
88 1677 SAMUEL LEBRUN VETERAN 1 23 02:41:51 07:04 8.50
89 1674 LIONEL MERVEILLE SENIOR H 47 02:43:17 07:07 8.42
90 1625 CATHERINE RIFFLART SENIOR D 6 02:43:17 07:07 8.42
91 1768 ARNAUX CAMINO VETERAN 1 24 02:44:46 07:11 8.35
92 1620 MARGOT VANDEMEULEBROEK SENIOR D 7 02:46:57 07:17 8.24
93 1637 DIDIER DENDAL VÉTÉRAN 2 10 02:47:13 07:18 8.23
94 1778 OLIVIER CELLIERE VETERAN 1 25 02:48:28 07:21 8.16
95 1680 GABRIEL LESTRATE VETERAN 3 1 02:49:09 07:23 8.13
96 1618 PIERRE LEO SENIOR H 48 02:49:13 07:23 8.13
97 1839 XXX MARNEFFE XXX   02:49:33 07:24 8.11
98 1635 THIERRY BERGER VETERAN 1 26 02:50:50 07:27 8.05
99 1814 SOPHIE GOFFINET AINÉE 1 3 02:50:51 07:27 8.05
100 1824 BEJAMIN AOUST SENIOR H 49 02:54:19 07:36 7.89
101 1841 SERGE CUVELIER VÉTÉRAN 2 11 02:54:22 07:36 7.89
102 1769 XAVIER THOMAS VETERAN 1 27 02:55:02 07:38 7.86
103 1805 AMANDINE PIETTE SENIOR D 8 02:55:38 07:40 7.83
104 1783 NICOLAS CHENIAUX VETERAN 1 28 02:55:41 07:40 7.83
105 1825 ROGER VERPOORTEN VETERAN 3 2 02:55:56 07:40 7.82
106 1664 ROBERT PHILIPPART VETERAN 1 29 02:55:57 07:41 7.82
107 1608 JEAN-YVES BRICHARD VÉTÉRAN 2 12 02:56:02 07:41 7.81
108 1660 VINCENT PASTORI VETERAN 1 30 02:56:10 07:41 7.81
109 1797 ALEXIS COSSEMENT VETERAN 1 31 02:58:12 07:46 7.72
110 1844 FABIAN PETITJEAN VETERAN 1 32 02:58:38 07:48 7.70
111 1859 JULIE PETERS AINÉE 1 4 02:58:55 07:48 7.69
112 1623 FRANCOIS LEO SENIOR H 50 02:59:17 07:49 7.67
113 1658 YANNICK DANDOIS VETERAN 1 33 02:59:18 07:49 7.67
114 1794 EDDY KUYPERS VETERAN 3 3 02:59:18 07:49 7.67
115 1858 JOACHIM VANDERMERECH VETERAN 1 34 02:59:47 07:51 7.65
116 1810 MARIE WANSARD SENIOR D 9 03:00:00 07:51 7.64
117 1812 MAXIME LEONET VETERAN 1 35 03:00:01 07:51 7.64
118 1605 FABRICE LAMBOTTE VETERAN 1 36 03:00:02 07:51 7.64
119 1795 CAROLINE DIDEUX SENIOR D 10 03:00:29 07:52 7.62
120 1816 PHILIPE MELERY VÉTÉRAN 2 13 03:00:51 07:53 7.61
121 1796 ARNAUD ZULIANI VETERAN 1 37 03:02:15 07:57 7.55
122 1793 VALERIE WATELET SENIOR D 11 03:03:46 08:01 7.49
123 1673 BART DE DONDER VÉTÉRAN 2 14 03:04:24 08:03 7.46
124 1802 CAROLINE MAROT AINÉE 1 5 03:04:25 08:03 7.46
125 1779 LAURENT SENAEVE VETERAN 1 38 03:04:28 08:03 7.46
126 1754 NICOLAS SCHURGERS VETERAN 1 39 03:04:56 08:04 7.44
127 1663 HENRI VELGHE SENIOR H 51 03:05:22 08:05 7.42
128 1661 BENJAMIN BERA SENIOR H 52 03:05:22 08:05 7.42
129 1776 MICHEL HUSZTI SENIOR H 53 03:05:32 08:06 7.41
130 1616 EMMANUEL DELBART SENIOR H 54 03:06:23 08:08 7.38
131 1753 SEBASTIEN TILLEUX VETERAN 1 40 03:06:24 08:08 7.38
132 1826 LAURENCE CLEMENT AINÉE 1 6 03:06:55 08:09 7.36
133 1653 CRISTELLE DAVISTER AINÉE 1 7 03:07:37 08:11 7.33
134 1631 LAITIZIA MONTALTO AINÉE 1 8 03:07:40 08:11 7.33
135 1756 CAROLINE LEGRAIN SENIOR D 12 03:08:28 08:13 7.30
136 1850 LYDIA DE KUISSCHER AINÉE 1 9 03:10:22 08:18 7.23
137 1851 DIDIER PIERRET VÉTÉRAN 2 15 03:10:23 08:18 7.22
138 1624 VERONIQUE MATHONET AINÉE 2 4 03:10:48 08:19 7.21
139 1630 LUCO RAHIER SENIOR H 55 03:12:06 08:23 7.16
140 1819 MICHEL LECOMTE VÉTÉRAN 2 16 03:13:40 08:27 7.10
141 1681 DOROTHEE BONNET AINÉE 2 5 03:13:41 08:27 7.10
142 1668 BENJAMIN CORBIAUX SENIOR H 56 03:14:44 08:30 7.06
143 1601 ANNE LOMMERS AINÉE 2 6 03:15:16 08:31 7.04
144 1669 CATHERINE HAUTIER SENIOR D 13 03:15:28 08:32 7.04
145 1847 PASCAL BENNER VÉTÉRAN 2 17 03:15:41 08:32 7.03
146 1782 TONY DONOLFO VETERAN 1 41 03:24:29 08:55 6.73
147 1771 LUDIVINE DENIL SENIOR D 14 03:24:42 08:56 6.72
148 1790 STEPHANIE HENRY AINÉE 1 10 03:24:42 08:56 6.72
149 1645 BRUNO NEMANN SENIOR H 57 03:28:06 09:05 6.61
150 1770 NOELINE DEMEURE SENIOR D 15 03:28:25 09:05 6.60
151 1772 MARIE DE BROUWER SENIOR D 16 03:28:25 09:05 6.60
152 1855 MICHAEL BOUCAAT VETERAN 1 42 03:31:30 09:14 6.50
153 1854 JEROME ROBAT SENIOR H 58 03:31:30 09:14 6.50
154 1821 PASCAL MARTIN VETERAN 1 43 03:31:33 09:14 6.50